ANZ312 NZCH-ANYN

Flight info

Callsign ANZ312
Flight time 1h 50m
Altitude 35000
Route PORAM H110 NS H252 NP H384 AA A597 DUGAN/N0448F360 R599 ELSAX/N0455F380 R599 VLI/N0451F370 B590 KAPNO/N0451F380 B590 NI
Aircraft A20N/M-SDE2E3FGHIRWXY/LB1

Departure

Time 2026-05-07 07:27
Airport Christchurch International Airport (NZCH)

Arrival

Time 2026-05-07 09:17
Airport Nauru International Airport (ANYN)
Time Latitude Longitude Altitude Speed Heading
2026-05-07 07:16 -43.48789 172.53821 120 ft 0 kts 107°
2026-05-07 07:18 -43.48785 172.53807 121 ft 2 kts 111°
2026-05-07 07:19 -43.48779 172.53786 118 ft 2 kts 116°
2026-05-07 07:19 -43.48771 172.53766 117 ft 2 kts 125°
2026-05-07 07:19 -43.48760 172.53749 121 ft 2 kts 141°
2026-05-07 07:19 -43.48745 172.53739 120 ft 2 kts 172°
2026-05-07 07:20 -43.48729 172.53741 117 ft 2 kts 206°
2026-05-07 07:20 -43.48725 172.53745 118 ft 0 kts 216°
2026-05-07 07:21 -43.48760 172.53709 121 ft 9 kts 220°
2026-05-07 07:22 -43.48826 172.53632 119 ft 19 kts 220°
2026-05-07 07:22 -43.48894 172.53553 121 ft 19 kts 220°
2026-05-07 07:22 -43.48990 172.53441 115 ft 18 kts 219°
2026-05-07 07:22 -43.49089 172.53330 117 ft 18 kts 220°
2026-05-07 07:23 -43.49180 172.53225 120 ft 16 kts 219°
2026-05-07 07:23 -43.49265 172.53124 120 ft 18 kts 219°
2026-05-07 07:23 -43.49365 172.53010 125 ft 18 kts 220°
2026-05-07 07:23 -43.49467 172.52894 127 ft 19 kts 216°
2026-05-07 07:24 -43.49568 172.52780 130 ft 20 kts 220°
2026-05-07 07:24 -43.49732 172.52591 129 ft 26 kts 219°
2026-05-07 07:24 -43.49775 172.52542 127 ft 5 kts 220°
2026-05-07 07:24 -43.49797 172.52462 131 ft 14 kts 275°
2026-05-07 07:25 -43.49738 172.52242 126 ft 10 kts 10°
2026-05-07 07:25 -43.49710 172.52268 126 ft 0 kts 39°
2026-05-07 07:26 -43.49622 172.52375 127 ft 41 kts 43°
2026-05-07 07:26 -43.49262 172.52784 122 ft 96 kts 39°
2026-05-07 07:26 -43.48581 172.53572 124 ft 157 kts 40°
2026-05-07 07:26 -43.47700 172.54535 631 ft 160 kts 39°
2026-05-07 07:27 -43.46823 172.55507 1249 ft 162 kts 37°
2026-05-07 07:27 -43.45960 172.56483 1835 ft 164 kts 29°
2026-05-07 07:27 -43.44876 172.57161 2127 ft 181 kts 15°
2026-05-07 07:27 -43.43615 172.57750 2377 ft 201 kts 15°
2026-05-07 07:28 -43.42261 172.58454 2754 ft 212 kts 17°
2026-05-07 07:28 -43.40875 172.59253 3312 ft 219 kts 18°
2026-05-07 07:28 -43.39481 172.60104 4006 ft 219 kts 18°
2026-05-07 07:28 -43.38046 172.60994 4421 ft 236 kts 18°
2026-05-07 07:29 -43.36492 172.61967 4775 ft 253 kts 18°
2026-05-07 07:29 -43.34887 172.62988 5304 ft 261 kts 17°
2026-05-07 07:29 -43.33197 172.63891 5970 ft 257 kts
2026-05-07 07:29 -43.31441 172.64290 6699 ft 254 kts 359°
2026-05-07 07:30 -43.25627 172.65279 9203 ft 257 kts 358°
2026-05-07 07:30 -43.18129 172.66635 11219 ft 292 kts 360°
2026-05-07 07:30 -43.09748 172.68200 13517 ft 314 kts
2026-05-07 07:30 -43.00805 172.69859 15543 ft 332 kts
2026-05-07 07:31 -42.91430 172.71593 17580 ft 347 kts
2026-05-07 07:31 -42.81693 172.73785 19354 ft 364 kts
2026-05-07 07:31 -42.71831 172.77103 21017 ft 375 kts
2026-05-07 07:31 -42.61516 172.80416 22605 ft 386 kts
2026-05-07 07:32 -42.50887 172.83824 24025 ft 396 kts
2026-05-07 07:32 -42.40012 172.87297 25307 ft 404 kts
2026-05-07 07:32 -42.28947 172.90817 26495 ft 412 kts
2026-05-07 07:32 -42.17696 172.94383 27644 ft 418 kts
2026-05-07 07:33 -42.06413 172.97946 28604 ft 423 kts
2026-05-07 07:33 -41.94910 173.01573 29956 ft 422 kts
2026-05-07 07:33 -41.83481 173.05151 30903 ft 421 kts
2026-05-07 07:33 -41.72085 173.08716 31897 ft 418 kts
2026-05-07 07:34 -41.60769 173.12234 32806 ft 416 kts
2026-05-07 07:34 -41.49670 173.15676 33713 ft 412 kts
2026-05-07 07:34 -41.38548 173.19111 34352 ft 410 kts
2026-05-07 07:34 -41.27425 173.22860 34852 ft 415 kts 12°
2026-05-07 07:35 -41.12409 173.29462 35034 ft 422 kts 11°
2026-05-07 07:35 -40.86322 173.40719 35051 ft 417 kts 11°
2026-05-07 07:36 -40.64164 173.50229 35064 ft 419 kts 11°
2026-05-07 07:36 -40.42100 173.59628 35078 ft 419 kts 12°
2026-05-07 07:37 -40.19865 173.69037 35086 ft 419 kts 12°
2026-05-07 07:37 -39.97555 173.78411 35094 ft 422 kts 12°
2026-05-07 07:38 -39.75127 173.87773 35104 ft 424 kts 12°
2026-05-07 07:38 -39.52742 173.97057 35116 ft 425 kts 12°
2026-05-07 07:39 -39.30188 174.06349 35140 ft 423 kts 12°
2026-05-07 07:39 -39.07930 174.15454 35158 ft 422 kts 13°
2026-05-07 07:40 -38.85366 174.23341 35165 ft 419 kts
2026-05-07 07:40 -38.62663 174.30627 35173 ft 421 kts 10°
2026-05-07 07:41 -38.36248 174.39040 35184 ft 422 kts 10°
2026-05-07 07:41 -38.13413 174.46262 35192 ft 423 kts
2026-05-07 07:42 -37.90496 174.53467 35198 ft 425 kts 10°
2026-05-07 07:42 -37.67628 174.60618 35206 ft 426 kts 10°
2026-05-07 07:43 -37.44546 174.67789 35209 ft 428 kts 10°
2026-05-07 07:43 -37.21309 174.74964 35214 ft 430 kts 10°
2026-05-07 07:44 -36.97964 174.80060 35222 ft 418 kts 341°
2026-05-07 07:44 -36.76191 174.69885 35215 ft 420 kts 337°
2026-05-07 07:45 -36.54295 174.59575 35215 ft 420 kts 337°
2026-05-07 07:45 -36.32377 174.49327 35212 ft 421 kts 337°
2026-05-07 07:46 -36.10409 174.39118 35212 ft 421 kts 337°
2026-05-07 07:46 -35.88597 174.29042 35213 ft 422 kts 337°
2026-05-07 07:47 -35.66545 174.18915 35214 ft 422 kts 338°
2026-05-07 07:47 -35.44531 174.08864 35218 ft 422 kts 338°
2026-05-07 07:48 -35.22514 173.98871 35209 ft 422 kts 337°
2026-05-07 07:48 -35.00551 173.88960 35210 ft 423 kts 337°
2026-05-07 07:49 -34.78399 173.79021 35212 ft 424 kts 338°
2026-05-07 07:49 -34.56231 173.69132 35203 ft 424 kts 338°
2026-05-07 07:50 -34.34006 173.59274 35208 ft 425 kts 337°
2026-05-07 07:50 -34.11723 173.49446 35204 ft 426 kts 337°
2026-05-07 07:51 -33.89523 173.39711 35201 ft 428 kts 337°
2026-05-07 07:51 -33.66669 173.31125 35196 ft 431 kts 339°
2026-05-07 07:52 -33.43619 173.22609 35200 ft 435 kts 339°
2026-05-07 07:52 -33.20405 173.14085 35198 ft 437 kts 338°
2026-05-07 07:53 -32.97184 173.05607 35199 ft 439 kts 338°
2026-05-07 07:53 -32.73746 172.97096 35193 ft 440 kts 338°
2026-05-07 07:54 -32.50423 172.88673 35191 ft 440 kts 337°
2026-05-07 07:54 -32.26936 172.80236 35188 ft 440 kts 337°
2026-05-07 07:55 -32.04589 172.71848 34892 ft 432 kts 325°
2026-05-07 07:55 -32.01794 172.70447 34699 ft 440 kts 336°
2026-05-07 07:55 -31.91555 172.67522 35184 ft 439 kts 339°
2026-05-07 07:56 -31.67972 172.59259 35183 ft 443 kts 337°
2026-05-07 07:56 -31.44366 172.50934 35179 ft 444 kts 336°
2026-05-07 07:57 -31.20638 172.42616 35180 ft 444 kts 336°
2026-05-07 07:57 -30.97069 172.34395 35174 ft 444 kts 336°
2026-05-07 07:58 -30.73320 172.26154 35170 ft 445 kts 336°
2026-05-07 07:58 -30.49538 172.17943 35166 ft 446 kts 335°
2026-05-07 07:59 -30.25737 172.09768 35168 ft 446 kts 335°
2026-05-07 07:59 -30.01875 172.01614 35163 ft 447 kts 335°
2026-05-07 08:00 -29.78116 171.93535 35159 ft 449 kts 335°
2026-05-07 08:00 -29.54124 171.85419 35155 ft 449 kts 335°
2026-05-07 08:01 -29.30110 171.77335 35153 ft 450 kts 335°
2026-05-07 08:01 -29.06016 171.69265 35146 ft 451 kts 335°
2026-05-07 08:02 -28.81844 171.61208 35142 ft 452 kts 334°
2026-05-07 08:02 -28.57628 171.53176 35139 ft 453 kts 334°
2026-05-07 08:03 -28.33522 171.45219 35136 ft 454 kts 334°
2026-05-07 08:03 -28.09260 171.37247 35131 ft 454 kts 334°
2026-05-07 08:04 -27.84955 171.29299 35130 ft 454 kts 334°
2026-05-07 08:04 -27.60612 171.21376 35120 ft 456 kts 334°
2026-05-07 08:05 -27.36150 171.13450 35125 ft 458 kts 334°
2026-05-07 08:05 -27.11807 171.05601 35119 ft 459 kts 334°
2026-05-07 08:06 -26.87240 170.97716 35115 ft 458 kts 334°
2026-05-07 08:06 -26.62685 170.89867 35108 ft 457 kts 334°
2026-05-07 08:07 -26.38236 170.82089 35106 ft 456 kts 334°
2026-05-07 08:07 -26.13861 170.74370 35105 ft 455 kts 334°
2026-05-07 08:08 -25.89607 170.66720 35099 ft 455 kts 334°
2026-05-07 08:08 -25.65205 170.59057 35096 ft 456 kts 334°
2026-05-07 08:09 -25.40788 170.51417 35091 ft 455 kts 333°
2026-05-07 08:09 -25.16402 170.43820 35090 ft 455 kts 333°
2026-05-07 08:10 -24.92182 170.36304 35080 ft 454 kts 333°
2026-05-07 08:10 -24.67853 170.28784 35078 ft 453 kts 333°
2026-05-07 08:11 -24.43516 170.21294 35074 ft 453 kts 333°
2026-05-07 08:11 -24.19345 170.13885 35072 ft 453 kts 333°
2026-05-07 08:12 -23.94921 170.06428 35073 ft 454 kts 333°
2026-05-07 08:12 -23.70645 169.99046 35065 ft 455 kts 333°
2026-05-07 08:13 -23.46252 169.91657 35062 ft 455 kts 333°
2026-05-07 08:13 -23.25997 169.85437 35056 ft 452 kts 332°
2026-05-07 08:14 -23.01840 169.77592 35051 ft 452 kts 333°
2026-05-07 08:14 -22.77695 169.69818 35049 ft 452 kts 333°
2026-05-07 08:15 -22.53698 169.62121 35047 ft 452 kts 333°
2026-05-07 08:15 -22.29495 169.54387 35040 ft 452 kts 334°
2026-05-07 08:16 -22.05361 169.46702 35035 ft 452 kts 334°
2026-05-07 08:16 -21.81215 169.39041 35028 ft 452 kts 334°
2026-05-07 08:17 -21.57199 169.31447 35024 ft 452 kts 334°
2026-05-07 08:17 -21.33017 169.23828 35024 ft 453 kts 335°
2026-05-07 08:18 -21.08796 169.16223 35020 ft 453 kts 335°
2026-05-07 08:18 -20.84564 169.08640 35015 ft 453 kts 335°
2026-05-07 08:19 -20.60381 169.01097 35004 ft 453 kts 335°
2026-05-07 08:19 -20.36351 168.93628 35005 ft 453 kts 336°
2026-05-07 08:20 -20.12082 168.86108 35001 ft 453 kts 336°
2026-05-07 08:20 -19.87853 168.78625 34999 ft 453 kts 336°
2026-05-07 08:21 -19.63750 168.71204 34991 ft 453 kts 336°
2026-05-07 08:21 -19.39440 168.63744 34990 ft 454 kts 337°
2026-05-07 08:22 -19.14688 168.57612 34985 ft 458 kts 341°
2026-05-07 08:22 -18.89877 168.52015 34985 ft 458 kts 341°
2026-05-07 08:23 -18.64918 168.46408 34981 ft 458 kts 342°
2026-05-07 08:23 -18.39922 168.40809 34976 ft 459 kts 342°
2026-05-07 08:24 -18.14923 168.35226 34968 ft 459 kts 342°
2026-05-07 08:24 -17.90051 168.29688 34966 ft 460 kts 342°
2026-05-07 08:25 -17.64930 168.24223 34964 ft 464 kts 348°
2026-05-07 08:25 -17.39033 168.22216 34961 ft 467 kts 351°
2026-05-07 08:26 -17.00084 168.19109 34954 ft 467 kts 351°
2026-05-07 08:26 -16.74252 168.17055 34955 ft 468 kts 351°
2026-05-07 08:27 -16.48268 168.14993 34955 ft 468 kts 352°
2026-05-07 08:27 -16.22285 168.12938 34948 ft 468 kts 352°
2026-05-07 08:28 -15.96268 168.10885 34943 ft 468 kts 352°
2026-05-07 08:28 -15.70443 168.08853 34941 ft 468 kts 352°
2026-05-07 08:29 -15.44447 168.06812 34935 ft 468 kts 352°
2026-05-07 08:29 -15.18440 168.04776 34932 ft 468 kts 353°
2026-05-07 08:30 -14.92490 168.02719 34924 ft 467 kts 352°
2026-05-07 08:30 -14.66570 168.00550 34922 ft 467 kts 353°
2026-05-07 08:31 -14.40830 167.98411 34918 ft 466 kts 353°
2026-05-07 08:31 -14.14970 167.96266 34915 ft 466 kts 353°
2026-05-07 08:32 -13.89050 167.94122 34910 ft 465 kts 353°
2026-05-07 08:32 -13.63374 167.92003 34906 ft 465 kts 353°
2026-05-07 08:33 -13.37571 167.89878 34902 ft 464 kts 353°
2026-05-07 08:33 -13.11770 167.87757 34898 ft 464 kts 353°
2026-05-07 08:34 -12.86018 167.85645 34894 ft 464 kts 353°
2026-05-07 08:34 -12.60305 167.83541 34891 ft 464 kts 353°
2026-05-07 08:35 -12.34553 167.81440 34890 ft 463 kts 353°
2026-05-07 08:35 -12.08925 167.79352 34890 ft 464 kts 353°
2026-05-07 08:36 -11.83151 167.77567 34885 ft 464 kts 354°
2026-05-07 08:36 -11.57315 167.75850 34884 ft 464 kts 354°
2026-05-07 08:37 -11.31719 167.74152 34877 ft 464 kts 354°
2026-05-07 08:37 -11.05947 167.72444 34881 ft 464 kts 354°
2026-05-07 08:38 -10.80181 167.70739 34879 ft 464 kts 354°
2026-05-07 08:38 -10.54395 167.69036 34880 ft 464 kts 354°
2026-05-07 08:39 -10.28614 167.67337 34868 ft 463 kts 354°
2026-05-07 08:39 -10.03074 167.65657 34880 ft 462 kts 355°
2026-05-07 08:40 -9.77411 167.63971 34856 ft 461 kts 355°
2026-05-07 08:40 -9.51772 167.62290 34869 ft 460 kts 355°
2026-05-07 08:41 -9.26190 167.60615 34865 ft 459 kts 355°
2026-05-07 08:41 -9.00880 167.58960 34861 ft 458 kts 355°
2026-05-07 08:42 -8.75341 167.57292 34862 ft 459 kts 355°
2026-05-07 08:42 -8.49762 167.55624 34864 ft 460 kts 355°
2026-05-07 08:43 -8.24182 167.53959 34865 ft 460 kts 355°
2026-05-07 08:43 -7.98708 167.52302 34863 ft 461 kts 356°
2026-05-07 08:44 -7.73089 167.50638 34862 ft 461 kts 356°
2026-05-07 08:44 -7.47459 167.48975 34864 ft 461 kts 356°
2026-05-07 08:45 -7.21847 167.47316 34862 ft 459 kts 356°
2026-05-07 08:45 -6.96658 167.45685 34862 ft 454 kts 356°
2026-05-07 08:46 -6.71404 167.44053 34859 ft 454 kts 356°
2026-05-07 08:46 -6.46098 167.42418 34856 ft 454 kts 356°
2026-05-07 08:47 -6.20845 167.40789 34858 ft 456 kts 357°
2026-05-07 08:47 -5.95690 167.39167 34852 ft 456 kts 357°
2026-05-07 08:48 -5.70307 167.37533 34849 ft 457 kts 357°
2026-05-07 08:48 -5.44936 167.35900 34850 ft 455 kts 357°
2026-05-07 08:49 -5.19652 167.34275 34852 ft 455 kts 357°
2026-05-07 08:49 -4.94347 167.32649 34851 ft 456 kts 357°
2026-05-07 08:50 -4.69174 167.31033 34850 ft 456 kts 357°
2026-05-07 08:50 -4.43803 167.29406 34851 ft 456 kts 357°
2026-05-07 08:51 -4.18473 167.27782 34852 ft 455 kts 357°
2026-05-07 08:51 -3.93311 167.26170 34851 ft 455 kts 357°
2026-05-07 08:52 -3.69493 167.24645 34851 ft 454 kts 357°
2026-05-07 08:52 -3.56887 167.23839 34851 ft 454 kts 357°
2026-05-07 08:53 -3.44264 167.23031 34853 ft 454 kts 357°
2026-05-07 08:53 -3.31641 167.22224 34853 ft 455 kts 357°
2026-05-07 08:54 -3.19083 167.21421 34856 ft 454 kts 357°
2026-05-07 08:54 -3.06461 167.20614 34852 ft 454 kts 357°
2026-05-07 08:55 -2.93826 167.19807 34853 ft 454 kts 357°
2026-05-07 08:55 -2.71358 167.18371 34853 ft 453 kts 357°
2026-05-07 08:56 -2.48665 167.16922 34856 ft 448 kts 356°
2026-05-07 08:56 -2.42350 167.16518 34729 ft 446 kts 356°
2026-05-07 08:57 -2.39251 167.16320 34096 ft 449 kts 356°
2026-05-07 08:57 -2.36103 167.16120 33227 ft 456 kts 356°
2026-05-07 08:57 -2.32924 167.15917 32461 ft 460 kts 357°
2026-05-07 08:57 -2.29722 167.15712 31726 ft 463 kts 357°
2026-05-07 08:58 -2.26501 167.15506 31117 ft 463 kts 357°
2026-05-07 08:58 -2.23286 167.15301 30617 ft 461 kts 357°
2026-05-07 08:58 -2.20090 167.15097 30065 ft 460 kts 357°
2026-05-07 08:58 -2.16895 167.14893 29447 ft 459 kts 357°
2026-05-07 08:59 -2.13710 167.14690 28887 ft 457 kts 357°
2026-05-07 08:59 -2.10546 167.14488 28343 ft 454 kts 357°
2026-05-07 08:59 -2.07439 167.14289 27805 ft 452 kts 358°
2026-05-07 08:59 -2.04301 167.14089 27256 ft 450 kts 358°
2026-05-07 09:00 -2.01167 167.13889 26691 ft 449 kts 358°
2026-05-07 09:00 -1.98056 167.13690 26149 ft 447 kts 358°
2026-05-07 09:00 -1.94949 167.13492 25597 ft 446 kts 358°
2026-05-07 09:00 -1.91853 167.13294 25045 ft 445 kts 358°
2026-05-07 09:01 -1.88798 167.13099 24498 ft 444 kts 358°
2026-05-07 09:01 -1.85706 167.12902 23979 ft 443 kts 359°
2026-05-07 09:01 -1.82663 167.12707 23735 ft 433 kts 359°
2026-05-07 09:01 -1.79668 167.12515 23254 ft 430 kts 359°
2026-05-07 09:02 -1.77001 167.12346 22741 ft 429 kts 359°
2026-05-07 09:02 -1.74031 167.12157 22230 ft 425 kts 359°
2026-05-07 09:02 -1.71089 167.11969 21745 ft 421 kts 358°
2026-05-07 09:02 -1.68174 167.11784 21158 ft 420 kts 358°
2026-05-07 09:03 -1.66238 167.11660 20704 ft 419 kts 358°
2026-05-07 09:03 -1.62415 167.11417 19804 ft 411 kts 358°
2026-05-07 09:03 -1.59584 167.11236 19148 ft 404 kts 358°
2026-05-07 09:03 -1.57733 167.11118 18723 ft 399 kts 358°
2026-05-07 09:04 -1.54987 167.10942 18189 ft 390 kts 358°
2026-05-07 09:04 -1.52295 167.10770 17583 ft 384 kts 357°
2026-05-07 09:04 -1.49641 167.10601 17072 ft 381 kts 357°
2026-05-07 09:04 -1.47005 167.10433 16585 ft 378 kts 357°
2026-05-07 09:05 -1.44388 167.10267 16089 ft 376 kts 357°
2026-05-07 09:05 -1.41785 167.10101 15599 ft 373 kts 357°
2026-05-07 09:05 -1.39199 167.09936 15107 ft 371 kts 357°
2026-05-07 09:05 -1.36626 167.09772 14620 ft 370 kts 357°
2026-05-07 09:06 -1.34065 167.09609 14137 ft 368 kts 357°
2026-05-07 09:06 -1.31519 167.09447 13655 ft 366 kts 357°
2026-05-07 09:06 -1.28981 167.09285 13121 ft 364 kts 357°
2026-05-07 09:06 -1.26466 167.09124 12635 ft 361 kts 357°
2026-05-07 09:07 -1.23970 167.08965 12197 ft 356 kts 357°
2026-05-07 09:07 -1.21524 167.08809 11842 ft 350 kts 357°
2026-05-07 09:07 -1.19108 167.08655 11395 ft 346 kts 357°
2026-05-07 09:07 -1.16710 167.08502 10946 ft 343 kts 357°
2026-05-07 09:08 -1.14368 167.08353 10620 ft 337 kts 357°
2026-05-07 09:08 -1.12072 167.08206 10482 ft 324 kts 357°
2026-05-07 09:08 -1.09854 167.08064 10329 ft 313 kts 357°
2026-05-07 09:08 -1.07713 167.07927 10136 ft 304 kts 357°
2026-05-07 09:09 -1.05612 167.07794 9765 ft 302 kts 357°
2026-05-07 09:09 -1.03518 167.07660 9301 ft 302 kts 357°
2026-05-07 09:09 -1.01438 167.07528 8788 ft 303 kts 357°
2026-05-07 09:09 -0.99317 167.07393 8278 ft 304 kts 357°
2026-05-07 09:10 -0.97194 167.07258 7777 ft 305 kts 357°
2026-05-07 09:10 -0.95084 167.07123 7462 ft 299 kts 357°
2026-05-07 09:10 -0.93064 167.06994 7284 ft 289 kts 357°
2026-05-07 09:10 -0.91060 167.06866 6829 ft 290 kts 357°
2026-05-07 09:11 -0.89044 167.06738 6453 ft 288 kts 357°
2026-05-07 09:11 -0.87066 167.06611 6129 ft 283 kts 357°
2026-05-07 09:11 -0.85093 167.06486 5665 ft 284 kts 357°
2026-05-07 09:11 -0.83143 167.06361 5312 ft 277 kts 357°
2026-05-07 09:12 -0.81248 167.06240 4956 ft 268 kts 357°
2026-05-07 09:12 -0.79411 167.06123 4629 ft 261 kts 357°
2026-05-07 09:12 -0.77619 167.06008 4300 ft 254 kts 357°
2026-05-07 09:12 -0.75871 167.05897 3997 ft 250 kts 357°
2026-05-07 09:13 -0.74136 167.05787 3688 ft 250 kts 358°
2026-05-07 09:13 -0.72399 167.05676 3386 ft 251 kts 358°
2026-05-07 09:13 -0.70680 167.05567 3077 ft 249 kts 358°
2026-05-07 09:13 -0.68957 167.05458 2762 ft 247 kts 358°
2026-05-07 09:14 -0.67233 167.05270 2375 ft 253 kts 348°
2026-05-07 09:14 -0.65606 167.04525 1862 ft 263 kts 322°
2026-05-07 09:14 -0.64322 167.03241 1699 ft 256 kts 312°
2026-05-07 09:14 -0.63197 167.01917 1681 ft 245 kts 311°
2026-05-07 09:15 -0.62112 167.00614 1688 ft 242 kts 311°
2026-05-07 09:15 -0.61040 166.99336 1694 ft 240 kts 311°
2026-05-07 09:15 -0.60012 166.98114 1638 ft 221 kts 311°
2026-05-07 09:15 -0.59100 166.96908 1293 ft 215 kts 307°
2026-05-07 09:16 -0.58198 166.95725 870 ft 213 kts 311°
2026-05-07 09:16 -0.57212 166.94651 546 ft 203 kts 316°
2026-05-07 09:16 -0.56284 166.93674 315 ft 185 kts 314°
2026-05-07 09:16 -0.55479 166.92752 145 ft 168 kts 311°
2026-05-07 09:17 -0.54756 166.91911 37 ft 145 kts 310°
2026-05-07 09:17 -0.54348 166.91437 34 ft 42 kts 309°
2026-05-07 09:17 -0.54249 166.91323 36 ft 21 kts 313°
2026-05-07 09:17 -0.54161 166.91216 37 ft 15 kts 309°
2026-05-07 09:18 -0.54134 166.91197 38 ft 3 kts 48°
2026-05-07 09:18 -0.54202 166.91268 36 ft 22 kts 129°
2026-05-07 09:18 -0.54304 166.91389 35 ft 23 kts 130°
2026-05-07 09:18 -0.54441 166.91548 32 ft 38 kts 131°
2026-05-07 09:19 -0.54497 166.91644 34 ft 11 kts 75°
2026-05-07 09:19 -0.54473 166.91636 33 ft 2 kts 262°